[[{"header":{"parameterUnit":"m.s-1","parameterCategory":1,"la1":30.2991,"la2":30.254,"lo1":-89.0895,"lo2":-89.0444,"dy":0.0017,"dx":0.0017,"nx":28,"ny":28,"refTime":"2025-05-28T09:00:00:Z","depth":0,"parameterNumber":2,"parameterNumberName":"U-component_of_WINDS"},"data":[0,0,0,0,0,0,0,0,0,0,0,0,0,0,0,0,0,0,0,0,0,0,0,0,0,0,0,0,0,0,0,0,0,0,0,0,0,0,0,0,0,0,0,0,0,0,0,0,0,0,0,0,0,0,0,0,0,0,-2.1568,-2.157,0,-2.1737,-2.1739,-2.174,-2.1836,-2.1836,-2.1836,-2.1837,-2.2004,-2.2009,-2.2013,0,0,0,0,0,0,0,0,0,0,0,0,0,-2.132,-2.1324,-2.1568,-2.157,-2.1572,-2.1736,-2.1739,-2.1741,-2.1836,-2.1836,-2.1836,-2.1837,-2.2003,-2.2008,-2.2013,0,0,0,0,0,0,0,0,0,0,0,0,0,-2.1452,-2.1325,-2.1567,-2.1639,-2.1647,-2.1736,-2.1739,-2.1742,-2.1835,-2.1836,-2.1836,-2.1837,-2.2001,-2.2008,-2.2014,-2.2043,0,0,-2.2033,-2.2036,0,0,0,0,0,0,0,0,-2.1444,-2.1461,-2.1627,-2.1634,-2.1644,-2.1766,-2.1713,-2.1842,-2.1835,-2.1764,-2.1837,-2.1837,-2.1924,-2.1937,-2.1967,-2.205,-2.2058,-2.2033,-2.2037,-2.204,-2.2042,0,0,0,0,0,0,0,-2.1435,-2.1454,-2.1635,-2.1629,-2.1639,-2.166,-2.168,-2.1738,-2.1839,-2.177,-2.1777,-2.1796,-2.1929,-2.1961,-2.1972,-2.206,-2.2033,-2.2039,-2.2043,-2.2045,-2.217,-2.217,0,0,0,0,0,0,-2.1415,-2.1446,-2.1629,-2.164,-2.1543,-2.1664,-2.1686,-2.1726,-2.1839,-2.1857,-2.1796,-2.18,-2.195,-2.1965,-2.1978,-2.2017,-2.204,-2.2046,-2.2049,-2.2171,-2.217,-2.217,0,0,0,0,0,0,-2.141,-2.1431,-2.1622,-2.1545,-2.1571,-2.1668,-2.1712,-2.1729,-2.1761,-2.1858,-2.1876,-2.181,-2.1951,-2.1969,-2.2025,-2.2024,-2.2049,-2.2054,-2.2171,-2.2171,-2.217,-2.2096,0,0,0,0,0,0,-2.1402,-2.1428,-2.1442,-2.1545,-2.1575,-2.1669,-2.1712,-2.1732,-2.1772,-2.178,-2.1877,-2.1893,-2.1953,-2.2015,-2.2031,-2.2033,-2.2059,-2.2172,-2.2171,-2.217,-2.2099,-2.2093,-2.2087,0,0,0,0,0,-2.1393,-2.1415,-2.1443,-2.1464,-2.1595,-2.1669,-2.1686,-2.1755,-2.1772,-2.1785,-2.1847,-2.189,-2.2021,-2.202,-2.2039,-2.2043,-2.2172,-2.2171,-2.217,-2.2101,-2.2094,-2.2087,0,0,0,0,0,0,-2.1309,-2.143,-2.1462,-2.1518,-2.1582,-2.1684,-2.1704,-2.1746,-2.1806,-2.181,-2.1892,-2.1913,-2.196,-2.2007,-2.2004,-2.2074,-2.2101,-2.2104,-2.2042,-2.2036,-2.203,-2.2018,-2.2064,0,0,0,0,0,-2.1297,-2.135,-2.1451,-2.149,-2.1521,-2.1606,-2.1641,-2.1689,-2.1758,-2.1786,-2.1852,-2.1916,-2.1971,-2.2006,-2.2063,-2.2106,-2.2126,-2.2117,-2.2111,-2.2106,-2.2107,-2.2129,-2.2125,-2.2167,-2.2167,-2.2167,0,0,-2.1274,-2.1345,-2.1373,-2.1475,-2.1531,-2.158,-2.1629,-2.168,-2.1716,-2.1793,-2.185,-2.19,-2.1976,-2.2024,-2.2049,-2.2065,-2.21,-2.2105,-2.21,-2.2104,-2.2128,-2.2124,-2.212,-2.2166,-2.2166,-2.2166,0,0,-2.1255,-2.1316,-2.1354,-2.1408,-2.1491,-2.1547,-2.1555,-2.1651,-2.1687,-2.1745,-2.1803,-2.1846,-2.1941,-2.1992,-2.203,-2.2025,-2.2066,-2.2041,-2.2012,-2.2032,-2.2029,-2.2026,-2.2021,-2.2019,-2.2042,-2.2042,-2.2042,0,-2.1214,-2.1293,-2.1367,-2.1414,-2.1455,-2.1527,-2.1564,-2.1612,-2.1709,-2.1734,-2.1751,-2.1869,-2.1926,-2.1985,-2.1984,-2.2013,-2.2023,-2.2031,-2.2023,-2.2022,-2.202,-2.2017,-2.2015,-2.2038,-2.2039,-2.2039,-2.2039,0,-2.1237,-2.129,-2.131,-2.1402,-2.1446,-2.1487,-2.1565,-2.1599,-2.1641,-2.1694,-2.175,-2.182,-2.189,-2.1908,-2.195,-2.1972,-2.1979,-2.2008,-2.2037,-2.2011,-2.2009,-2.2009,-2.2033,-2.2034,-2.2035,-2.2036,0,0,-2.1174,-2.1303,-2.131,-2.135,-2.1445,-2.1486,-2.1528,-2.1598,-2.1624,-2.1687,-2.1723,-2.1799,-2.1826,-2.1869,-2.1917,-2.1935,-2.1922,-2.1962,-2.1965,-2.195,-2.1946,-2.1922,-2.192,-2.195,-2.195,-2.195,-2.1939,0,-2.1168,-2.125,-2.1316,-2.1372,-2.1419,-2.1486,-2.1522,-2.1582,-2.1631,-2.1677,-2.1731,-2.1783,-2.1816,-2.1841,-2.1862,-2.192,-2.1922,-2.1921,-2.1981,-2.1982,-2.1958,-2.1919,-2.1895,-2.1882,-2.1939,-2.1939,-2.1939,0,-2.1174,-2.1233,-2.1294,-2.138,-2.1402,-2.1434,-2.15,-2.1544,-2.1612,-2.1646,-2.1691,-2.1741,-2.1785,-2.1808,-2.1868,-2.1866,-2.1894,-2.1925,-2.1926,-2.1933,-2.1958,-2.1923,-2.1879,-2.1876,-2.1939,-2.1939,-2.1939,0,-2.1118,-2.1214,-2.1262,-2.1295,-2.1397,-2.1417,-2.146,-2.1528,-2.1564,-2.1621,-2.1644,-2.1705,-2.1738,-2.1782,-2.1845,-2.1857,-2.1897,-2.1927,-2.1924,-2.1922,-2.1929,-2.1928,-2.1887,-2.1949,-2.1949,-2.1949,-2.1949,0,-2.1105,-2.1138,-2.1238,-2.1267,-2.1305,-2.1378,-2.1413,-2.1462,-2.1521,-2.1558,-2.1618,-2.1651,-2.1733,-2.1775,-2.1824,-2.1864,-2.1879,-2.1905,-2.1918,-2.1899,-2.1895,-2.1918,-2.192,-2.1949,-2.1949,-2.1949,-2.1949,0,-2.105,-2.1119,-2.1175,-2.1265,-2.1288,-2.1312,-2.1389,-2.1417,-2.1468,-2.1514,-2.1529,-2.1609,-2.1661,-2.1727,-2.1801,-2.1833,-2.1866,-2.1887,-2.1844,-2.1851,-2.1843,-2.1842,-2.1814,-2.1812,-2.1877,-2.1876,-2.1875,0,-2.1037,-2.1064,-2.1157,-2.1186,-2.1227,-2.1275,-2.1311,-2.1382,-2.1416,-2.1492,-2.1511,-2.1567,-2.1616,-2.1695,-2.1758,-2.1813,-2.1834,-2.182,-2.1843,-2.1821,-2.183,-2.1827,-2.1828,-2.1814,-2.1813,-2.1812,-2.1812,0,-2.1005,-2.1036,-2.1087,-2.1147,-2.1189,-2.124,-2.1294,-2.1314,-2.1395,-2.143,-2.1484,-2.1522,-2.1595,-2.1648,-2.1711,-2.1752,-2.1794,-2.1804,-2.1805,-2.1786,-2.1759,-2.1771,-2.1826,-2.1804,-2.1805,-2.1805,-2.1806,-2.1806,-2.097,-2.0995,-2.1063,-2.1116,-2.1163,-2.1211,-2.1241,-2.1295,-2.1341,-2.1407,-2.1445,-2.1496,-2.1558,-2.1646,-2.1684,-2.1723,-2.174,-2.1743,-2.1744,-2.1743,-2.1735,-2.1753,-2.1735,-2.1736,-2.1736,-2.1736,-2.1736,0,-2.0939,-2.0985,-2.1032,-2.1105,-2.1145,-2.1181,-2.124,-2.1271,-2.1315,-2.137,-2.1416,-2.1475,-2.1526,-2.1591,-2.1646,-2.1664,-2.1684,-2.1676,-2.1674,-2.1682,-2.1719,-2.1711,-2.1658,-2.1658,-2.1658,-2.1658,-2.1658,-2.1658,-2.0928,-2.0972,-2.101,-2.1075,-2.1121,-2.1172,-2.1202,-2.1244,-2.1288,-2.1351,-2.1394,-2.1436,-2.1493,-2.1552,-2.1598,-2.1616,-2.1632,-2.1617,-2.164,-2.1673,-2.168,-2.1687,-2.168,-2.1621,-2.1621,-2.16,-2.16,-2.1599]},{"header":{"parameterUnit":"m.s-1","parameterCategory":1,"la1":30.2991,"la2":30.254,"lo1":-89.0895,"lo2":-89.0444,"dy":0.0017,"dx":0.0017,"nx":28,"ny":28,"refTime":"2025-05-28T09:00:00:Z","depth":0,"parameterNumber":3,"parameterNumberName":"V-component_of_WINDS"},"data":[0,0,0,0,0,0,0,0,0,0,0,0,0,0,0,0,0,0,0,0,0,0,0,0,0,0,0,0,0,0,0,0,0,0,0,0,0,0,0,0,0,0,0,0,0,0,0,0,0,0,0,0,0,0,0,0,0,0,1.5744,1.5745,0,1.5842,1.5843,1.5844,1.5803,1.5801,1.5799,1.5797,1.5893,1.5898,1.5903,0,0,0,0,0,0,0,0,0,0,0,0,0,1.552,1.5524,1.5744,1.5745,1.5746,1.5841,1.5843,1.5844,1.5804,1.5801,1.5798,1.5796,1.5892,1.5897,1.5903,0,0,0,0,0,0,0,0,0,0,0,0,0,1.5617,1.5525,1.5743,1.5738,1.5738,1.5841,1.5843,1.5844,1.5804,1.5801,1.5797,1.5794,1.589,1.5897,1.5904,1.6017,0,0,1.5925,1.5928,0,0,0,0,0,0,0,0,1.5612,1.5625,1.5737,1.5738,1.5739,1.5807,1.5799,1.5902,1.5805,1.5779,1.5797,1.5793,1.5867,1.5876,1.5902,1.6022,1.6026,1.5926,1.593,1.5933,1.5935,0,0,0,0,0,0,0,1.5605,1.5621,1.5782,1.5739,1.574,1.5729,1.5739,1.5818,1.5841,1.5781,1.5778,1.5791,1.5867,1.5895,1.5904,1.6027,1.5926,1.5932,1.5937,1.5939,1.6248,1.6251,0,0,0,0,0,0,1.5598,1.5616,1.5779,1.5785,1.5666,1.5736,1.5747,1.5788,1.584,1.5845,1.5794,1.5789,1.5884,1.5895,1.5907,1.6045,1.5933,1.594,1.5944,1.6244,1.6249,1.6253,0,0,0,0,0,0,1.5594,1.5613,1.5775,1.57,1.572,1.5744,1.579,1.5792,1.582,1.585,1.5853,1.5818,1.5882,1.5897,1.5991,1.6048,1.5943,1.595,1.6239,1.6245,1.6251,1.6321,0,0,0,0,0,0,1.5588,1.5612,1.5656,1.5701,1.5724,1.5858,1.5794,1.5797,1.5833,1.5827,1.5874,1.5878,1.5881,1.5981,1.5998,1.6056,1.5955,1.6234,1.6242,1.6249,1.6314,1.6329,1.6342,0,0,0,0,0,1.558,1.567,1.5658,1.5678,1.5779,1.5862,1.5874,1.5876,1.5838,1.5882,1.5901,1.5877,1.6039,1.599,1.601,1.6071,1.6231,1.624,1.6248,1.6308,1.6326,1.6341,0,0,0,0,0,0,1.5628,1.5676,1.5663,1.5771,1.5813,1.5855,1.591,1.5895,1.5947,1.594,1.5939,1.5949,1.6047,1.6068,1.6013,1.6184,1.6129,1.6142,1.6167,1.6185,1.6198,1.6192,1.5961,0,0,0,0,0,1.5652,1.5717,1.5754,1.5845,1.5867,1.5886,1.5921,1.592,1.5962,1.5979,1.6005,1.6047,1.6107,1.6147,1.6204,1.6317,1.6327,1.6368,1.6382,1.6393,1.6405,1.6468,1.6488,1.6282,1.6282,1.6282,0,0,1.5701,1.5735,1.5775,1.5856,1.5888,1.5955,1.59,1.5972,1.6021,1.5989,1.6081,1.6102,1.6148,1.6253,1.63,1.6273,1.6464,1.6404,1.6413,1.6419,1.6479,1.6499,1.6516,1.6288,1.6287,1.6286,0,0,1.5825,1.5856,1.5937,1.5972,1.6022,1.6034,1.6054,1.6099,1.6112,1.6204,1.6182,1.624,1.6344,1.6379,1.641,1.655,1.653,1.6568,1.664,1.6703,1.6719,1.6733,1.6785,1.6804,1.6579,1.6579,1.658,0,1.5879,1.5979,1.598,1.6056,1.6093,1.6069,1.6152,1.6184,1.625,1.6276,1.6245,1.6376,1.6405,1.6519,1.6554,1.6579,1.6602,1.6563,1.6716,1.6731,1.6744,1.6794,1.6813,1.6584,1.6583,1.6583,1.6582,0,1.6044,1.6114,1.6173,1.6241,1.6284,1.6362,1.6375,1.6419,1.6414,1.6429,1.6524,1.6559,1.6624,1.665,1.6644,1.6764,1.6746,1.6716,1.666,1.6769,1.6815,1.6834,1.659,1.6589,1.6587,1.6586,0,0,1.62,1.6269,1.6291,1.6323,1.6378,1.6432,1.6509,1.6574,1.6613,1.6659,1.6725,1.6814,1.6788,1.6823,1.6821,1.6876,1.6987,1.6839,1.684,1.6867,1.7124,1.7148,1.7169,1.6974,1.6978,1.6981,1.7121,0,1.6329,1.6468,1.6473,1.6598,1.6664,1.6644,1.6711,1.6753,1.6769,1.6827,1.6844,1.6909,1.6867,1.6889,1.6942,1.6963,1.7039,1.6952,1.7036,1.7039,1.7027,1.7193,1.7218,1.7349,1.7139,1.7142,1.7144,0,1.6498,1.6554,1.6687,1.6736,1.6763,1.6824,1.6886,1.6941,1.6988,1.6996,1.7037,1.7028,1.7108,1.7049,1.716,1.7101,1.7135,1.7151,1.7156,1.7165,1.7099,1.7209,1.739,1.741,1.7172,1.717,1.7168,0,1.6602,1.6709,1.6803,1.683,1.6889,1.6933,1.6959,1.7002,1.7042,1.7095,1.7121,1.7182,1.7216,1.7264,1.7272,1.7228,1.7384,1.7325,1.7394,1.7394,1.7428,1.7426,1.7619,1.7447,1.7447,1.7447,1.7446,0,1.6747,1.6829,1.6851,1.6909,1.7002,1.7007,1.7098,1.712,1.716,1.7222,1.7207,1.7265,1.7271,1.7332,1.7338,1.743,1.7445,1.7454,1.7455,1.7457,1.7456,1.748,1.7472,1.7452,1.7451,1.745,1.7449,0,1.6878,1.6895,1.6998,1.7046,1.706,1.7126,1.7167,1.7223,1.7238,1.7318,1.7336,1.7361,1.7431,1.7444,1.7526,1.7531,1.7641,1.7632,1.7626,1.7626,1.7695,1.7689,1.7912,1.7942,1.7749,1.775,1.7752,0,1.697,1.7034,1.709,1.7132,1.7161,1.7228,1.7269,1.7277,1.732,1.738,1.7429,1.7498,1.7555,1.7668,1.7693,1.7757,1.775,1.7824,1.7759,1.776,1.7754,1.7751,1.7758,1.7836,1.7839,1.784,1.7842,0,1.7132,1.7139,1.72,1.7266,1.7317,1.7369,1.7417,1.7452,1.7466,1.7516,1.7589,1.7633,1.7719,1.7789,1.7852,1.7878,1.7863,1.7862,1.7881,1.7885,1.788,1.7886,1.7662,1.7857,1.7855,1.7854,1.7853,1.7853,1.7248,1.7305,1.7355,1.7425,1.7463,1.751,1.7566,1.759,1.7652,1.7724,1.7724,1.7804,1.7851,1.7936,1.7966,1.8029,1.8006,1.8033,1.8041,1.8048,1.8056,1.7869,1.804,1.804,1.804,1.8039,1.8039,0,1.7412,1.7444,1.7508,1.7579,1.7634,1.7616,1.767,1.7717,1.7789,1.7835,1.7891,1.7977,1.8045,1.8076,1.8143,1.8188,1.8183,1.8206,1.8203,1.821,1.8072,1.805,1.8209,1.8209,1.8209,1.8209,1.8209,1.8209,1.7504,1.7601,1.7613,1.7729,1.7759,1.7841,1.7873,1.7916,1.7953,1.805,1.8108,1.8128,1.8168,1.8239,1.8301,1.8308,1.8335,1.8361,1.8366,1.8236,1.8219,1.8203,1.8182,1.8366,1.8367,1.8499,1.85,1.8501]}]]